Location: Monte Malinvern
(44.1961°N, 7.1856°E)
Time: 15:59:28
(UTC+00:00)

Daily predictions for brighter satellites

Satellite Brightness Start Highest point End
(mag) Time Altitude Azimuth Time Altitude Azimuth Time Altitude Azimuth
FALCON 9 R/B 3.2 19:19:13 10° SW 19:22:57 34° SSE 19:32:18 10° ESE
NOSS 3-1 (A) 4.3 19:24:27 10° NW 19:31:57 86° SW 19:40:59 10° SSE
Lacrosse 5 2.1 19:26:54 10° NW 19:32:00 70° SW 19:37:04 10° SE
Meteor 2-21 Rocket 4.5 19:28:26 10° S 19:34:37 76° E 19:40:47 10° NNE
Cosmos 1371 Rocket 4.2 19:34:40 10° NNW 19:40:00 63° ENE 19:45:17 10° SSE
Cosmos 2278 Rocket 4.3 19:37:01 10° NW 19:41:30 25° WSW 19:45:59 10° SSW
Terra 3.3 19:39:10 10° ESE 19:42:47 22° ENE 19:46:23 10° NNE
CZ-4B R/B 3.9 19:38:20 10° S 19:43:33 53° W 19:48:44 10° NNW
Resurs 01 Rocket 2.2 19:40:52 10° S 19:45:14 59° W 19:49:37 10° NNW
Cosmos 1420 Rocket 4.1 19:42:13 10° NNW 19:47:34 85° ENE 19:52:52 10° SSE
USA 229 DEB 4.4 19:40:20 10° NNW 19:47:36 56° NE 19:55:26 10° ESE
USA 229 4.4 19:40:26 10° NNW 19:47:42 56° NE 19:55:32 10° ESE
USA 186 3.9 19:47:02 10° SSW 19:49:46 26° W 19:52:34 10° NW
Aureole 3 Rocket 3.5 19:47:46 10° N 19:51:48 55° E 19:57:18 10° SSE
MetOp-B 4.4 19:48:04 10° SE 19:53:16 54° ENE 19:58:29 10° N
Cosmos 2297 3.8 19:48:01 10° NNW 19:53:47 70° ENE 19:59:21 11° SSE
SPOT 5 3.0 19:52:46 10° SSE 19:57:14 53° ENE 20:01:33 10° N
Okean O Rocket 2.5 19:55:06 10° S 19:59:24 49° W 20:03:43 10° NNW
Cosmos 2084 3.1 19:58:58 10° NW 20:02:45 83° SW 20:05:55 14° SE
Meteor 1-26 Rocket 4.5 19:57:38 10° S 20:03:42 85° W 20:09:45 10° N
Cosmos 2112 Rocket 4.4 19:59:23 10° SSW 20:04:41 71° WNW 20:09:59 10° NNE
SeaSat 1 4.3 20:00:51 10° SSW 20:04:54 25° WSW 20:08:58 10° NW
Spot 2 Rocket 4.4 20:01:23 12° SE 20:05:22 33° ENE 20:09:52 10° N
Lacrosse 5 rocket 3.9 20:06:04 10° W 20:09:38 25° NNW 20:13:11 10° NNE
Cosmos 1378 4.3 20:07:26 10° SSW 20:10:31 38° WNW 20:13:37 10° N
CZ-4C R/B 3.3 20:07:35 10° NNE 20:11:24 88° WNW 20:15:22 10° SSW
Cosmos 1680 Rocket 4.5 20:07:58 10° SW 20:13:06 51° WNW 20:18:15 10° NNE
USA 276 1.1 20:11:17 10° WNW 20:13:27 88° NNE 20:14:33 26° ESE
MOS 1 4.4 20:09:13 10° SSE 20:14:53 82° WSW 20:20:35 10° NNW
SL-16 R/B 3.0 20:11:49 10° SW 20:17:21 55° WNW 20:22:57 10° NNE
USA 306 4.2 20:14:44 10° NW 20:18:04 29° NNE 20:21:30 10° E
Cosmos 1603 4.4 20:15:13 10° SSE 20:20:14 34° ESE 20:25:18 10° NE
Cosmos 1766 Rocket 3.6 20:15:48 10° N 20:20:17 89° E 20:24:17 13° S
BREEZE-M DEB (TANK) 3.1 20:19:31 10° W 20:22:27 43° NNW 20:24:28 10° NE
Cosmos 2263 4.3 20:18:49 10° NNW 20:24:31 70° ENE 20:28:48 18° SE
Meteor 2-6 Rocket 4.1 20:19:47 10° S 20:25:23 76° E 20:30:52 10° NNE
Cosmos 2221 3.1 20:21:19 10° SSW 20:25:35 60° W 20:29:53 10° N
ARGOS Delta rocket 4.0 20:21:31 16° SSE 20:25:35 64° ENE 20:30:22 10° N
USA 59 Rocket 2.3 20:23:28 10° N 20:25:36 14° NE 20:28:02 10° ENE
SL-8 R/B 3.6 20:22:01 10° WSW 20:26:46 89° S 20:31:34 10° ENE
BREEZE-M DEB (TANK) 3.8 20:23:18 10° WSW 20:26:55 88° N 20:37:01 10° ENE
Cosmos 2369 Rocket 2.2 20:22:25 10° NNW 20:28:03 84° WSW 20:32:25 17° SSE
Ariane Rocket 3.3 20:24:28 18° SE 20:28:03 51° ENE 20:32:58 10° N
Cosmos 44 4.1 20:23:42 10° NW 20:28:10 40° WSW 20:31:46 13° S
Okean 1 4.4 20:28:11 21° ESE 20:29:32 26° E 20:32:48 10° NNE
IRS-1A Rocket 4.3 20:24:58 13° SSE 20:29:59 90° SW 20:35:35 10° NNW
USA 32 4.1 20:27:37 10° S 20:32:50 84° W 20:38:06 10° N
Cosmos 1726 2.2 20:30:04 10° N 20:33:05 42° ENE 20:34:13 29° SE
Cosmos 1743 2.9 20:30:41 10° NNW 20:34:15 62° W 20:37:01 16° S
ISS -3.2 20:31:02 10° NW 20:34:18 52° NNE 20:36:18 21° E
ATLAS 3B R/B 3.8 20:27:21 10° NW 20:34:39 44° WSW 20:41:37 11° S
Cosmos 2056 Rocket 4.5 20:30:44 10° NNW 20:35:50 45° WSW 20:40:45 10° S
USA 245 1.7 20:37:08 51° SSE 20:37:34 76° E 20:39:50 10° N
Cosmos 1536 3.4 20:33:55 10° N 20:37:37 40° ENE 20:39:18 26° SE
Cosmos 2279 Rocket 4.0 20:31:59 10° N 20:38:10 66° E 20:42:38 19° SSE
Cosmos 1452 Rocket 3.7 20:34:36 10° NNW 20:39:48 60° ENE 20:43:00 23° SE
Cosmos 1656 Rocket 4.3 20:35:16 10° NW 20:40:34 51° WSW 20:45:00 15° S
Okean-O 4.0 20:36:34 10° SSW 20:40:34 34° W 20:44:37 10° NNW
USA 281 3.7 20:38:00 18° SE 20:42:41 51° ENE 20:49:01 10° NNW
Cosmos 1634 Rocket 4.1 20:38:33 10° N 20:44:50 76° W 20:50:18 14° S
Cosmos 921 Rocket 4.3 20:41:00 10° SW 20:45:17 44° WNW 20:49:36 10° N
Cosmos 1408 Rocket 3.8 20:44:00 10° N 20:48:23 55° ENE 20:50:31 28° SE
Cosmos 1943 3.3 20:50:41 10° SSW 20:56:23 82° WNW 21:02:05 10° NNE
Meteor 1-27 Rocket 3.9 20:54:53 25° SSE 20:57:55 51° E 21:03:16 10° NNE
ERS-1 Rocket 3.3 20:54:37 19° S 20:58:12 63° WSW 21:03:12 10° NNW
MOS 1 Rocket 3.5 21:06:00 27° S 21:08:50 85° W 21:14:10 10° NNW
Cosmos 1805 4.4 21:07:53 10° NNE 21:11:02 25° ENE 21:11:27 25° E
Meteor 2-17 Rocket 4.5 21:10:06 27° SSE 21:13:20 60° E 21:19:17 10° NNE
Lacrosse 5 4.2 21:12:21 10° W 21:14:07 12° WSW 21:15:53 10° SW
Meteor 2-9 Rocket 4.3 21:09:43 10° N 21:15:35 77° E 21:18:30 31° SSE
Cosmos 1151 Rocket 3.4 21:15:31 39° SE 21:16:28 46° E 21:20:38 10° NNE
Terra 2.7 21:17:17 21° SSW 21:20:05 44° W 21:24:36 10° NNW
Cosmos 1500 Rocket 3.4 21:18:05 10° N 21:22:25 86° W 21:23:50 42° S
Cosmos 1302 Rocket 4.1 21:20:18 10° NNW 21:25:28 62° ENE 21:27:23 37° SE
Cosmos 1626 4.0 21:27:25 15° ENE 21:27:25 15° ENE 21:28:36 10° NE
Cosmos 1331 Rocket 4.3 21:23:02 10° NNW 21:28:11 58° WSW 21:30:27 32° S
Cosmos 1340 Rocket 2.7 21:28:07 50° S 21:29:05 83° E 21:33:06 10° NNE
Cosmos 1733 2.8 21:27:06 10° N 21:30:38 90° E 21:30:57 72° S
Cosmos 1805 Rocket 3.5 21:28:01 10° N 21:32:25 82° W 21:33:43 46° S
MetOp-A 3.7 21:32:04 43° S 21:33:34 81° WSW 21:38:26 10° NNW
Cosmos 1633 Rocket 4.0 21:36:39 10° N 21:40:42 34° ENE 21:41:19 32° E
Cosmos 1666 Rocket 4.1 21:36:47 10° N 21:40:52 40° ENE 21:41:25 38° E
NOSS 8 (A) 4.4 21:41:35 72° S 21:41:52 79° SE 21:45:11 10° NE
IRIDIUM 114 4.5 21:38:02 10° N 21:43:13 59° E 21:44:36 44° SE
Cosmos 1818 4.0 21:45:39 39° ESE 21:45:56 40° ESE 21:51:01 10° NE
GEOS 3 Rocket 4.1 21:42:49 10° NNE 21:47:56 60° NW 21:52:56 10° SW
Lacrosse 5 rocket 4.4 21:46:54 10° NW 21:49:14 14° N 21:51:32 10° NNE
NOSS 3-3 (A) 4.0 21:49:56 41° SE 21:50:26 42° ESE 21:56:07 10° NE
USA 306 2.6 21:48:12 10° WNW 21:51:58 71° SW 21:51:58 71° SW
IRIDIUM 103 4.3 21:47:09 10° N 21:52:23 72° E 21:53:44 49° SSE
Sich 1 3.9 21:54:24 10° NNW 21:58:30 41° W 21:59:41 34° SW
USA 267 4.3 21:53:40 10° ENE 21:58:07 26° ESE 21:58:07 26° ESE
Cosmos 1428 Rocket 4.4 21:57:25 36° S 22:00:05 85° W 22:06:15 10° N
Cosmos 1340 3.2 21:56:55 10° NNW 22:00:03 42° W 22:00:03 42° W
H-2A R/B 3.1 22:02:24 41° E 22:02:44 42° ENE 22:06:45 10° N
Lacrosse 4 Rocket 2.1 22:00:38 10° NNW 22:04:32 41° NE 22:05:03 39° ENE
Cosmos 1092 Rocket 3.9 22:04:09 42° S 22:06:28 83° E 22:12:49 10° N
ARIANE 5 R/B 2.4 22:06:19 68° SE 22:06:45 77° ENE 22:11:04 10° N
Cosmos 1975 2.6 22:03:52 10° N 22:07:50 85° W 22:07:50 85° W
SL-8 R/B 4.5 22:04:51 10° W 22:09:29 51° N 22:14:09 10° ENE
Cosmos 1833 Rocket 3.5 22:09:33 33° ESE 22:09:34 33° ESE 22:14:31 10° NE
IRIDIUM 106 4.3 22:05:27 10° N 22:10:41 79° W 22:12:00 52° SSW
ISS -1.4 22:07:59 10° W 22:09:05 17° W 22:09:05 17° W
Cosmos 220 Rocket 3.9 22:10:21 67° SW 22:10:53 82° WNW 22:15:14 10° NNE
Cosmos 1674 4.3 22:16:37 22° ENE 22:16:37 22° ENE 22:18:27 10° NNE
USA 59 Rocket 0.1 22:11:28 10° NW 22:15:34 90° SSE 22:16:22 63° SE
NOSS 2-1 (E) 3.6 22:13:05 10° NW 22:17:12 87° SW 22:17:56 65° SSE
NOSS 3-3 (C) 3.7 22:18:49 54° S 22:19:51 66° ESE 22:25:59 10° NE
Cosmos 1707 4.5 22:26:26 21° ENE 22:26:26 21° ENE 22:28:23 10° NE
Cosmos 1269 Rocket 3.9 22:24:39 62° S 22:25:30 78° ESE 22:30:48 10° NNE
USA 281 4.2 22:24:52 26° SW 22:27:19 34° WSW 22:33:14 10° NW
NOSS 2-1 (D) 3.7 22:25:28 10° NW 22:29:32 66° SW 22:29:48 64° SW
Cosmos 1656 3.5 22:32:23 10° NNW 22:37:52 81° WSW 22:38:45 63° S
Cosmos 1766 3.6 22:38:17 10° N 22:41:25 60° NNW 22:41:25 60° NNW
Cosmos 44 Rocket 4.4 22:39:04 10° NNW 22:43:40 37° NE 22:45:16 29° E
Orbus 7S? 4.2 22:50:53 37° NE 22:50:53 37° NE 22:52:40 10° NE
Cosmos 1470 3.5 22:46:33 10° N 22:49:28 45° NE 22:49:28 45° NE
Cosmos 1515 Rocket 3.5 22:57:24 75° WNW 22:57:24 75° WNW 23:01:36 10° N
Cosmos 1626 4.0 23:00:14 21° WNW 23:00:14 21° WNW 23:02:19 10° NNW
Cosmos 1697 Rocket 2.7 23:01:03 10° NNW 23:06:42 72° ENE 23:07:49 56° SE
Cosmos 1470 Rocket 4.3 23:04:56 10° NNW 23:09:03 43° W 23:09:03 43° W
Cosmos 1869 Rocket 3.9 23:06:06 10° N 23:10:16 56° ENE 23:10:16 56° ENE
SL-08 ROCKET BODY 4.5 23:10:32 55° SSE 23:11:46 68° E 23:17:55 10° NNE
PSLV R/B 3.7 23:09:07 10° NNE 23:13:21 65° ENE 23:13:21 65° ENE
Cosmos 1980 Rocket 3.2 23:08:39 10° NNW 23:14:04 41° ENE 23:16:22 29° ESE
H-2A R/B 2.5 23:10:19 10° NNE 23:14:16 51° ENE 23:14:16 51° ENE
GP-B 3.7 23:13:21 10° NNE 23:17:25 45° E 23:17:25 45° E
Meteor 1-13 Rocket 4.3 23:17:10 61° SSE 23:18:12 78° E 23:24:07 10° NNE
In-Cosmos 22 4.2 23:20:44 61° SSE 23:21:35 72° E 23:27:19 10° NNE
ALOS 2 3.0 23:22:06 51° W 23:22:06 51° W 23:26:05 10° NNW
Meteor 2-10 Rocket 4.4 23:17:49 10° N 23:23:27 47° ENE 23:24:59 38° ESE
S3M 4.0 23:17:39 10° N 23:24:04 88° W 23:25:34 57° S
COSMOS 2406 4.1 23:25:52 33° ESE 23:26:10 33° ESE 23:31:15 10° NE
Lacrosse 5 rocket 4.0 23:25:52 10° NNW 23:28:57 20° NNE 23:31:57 10° ENE
Cosmos 2315 Rocket 4.0 23:25:20 10° N 23:31:38 74° E 23:33:14 52° SSE
Cosmos 1758 4.4 23:29:14 10° N 23:32:24 36° ENE 23:32:24 36° ENE
Cosmos 1933 Rocket 4.3 23:30:14 10° NNW 23:34:01 44° WNW 23:34:01 44° WNW
Cosmos 2285 Rocket 4.0 23:34:28 53° SW 23:36:05 80° WNW 23:42:28 10° NNE
Cosmos 1140 Rocket 3.9 23:41:27 47° WSW 23:42:26 54° WNW 23:47:35 10° NNE
Lacrosse 4 Rocket 3.6 23:39:33 10° WNW 23:40:58 16° W 23:40:58 16° W
USA 267 3.2 23:35:59 10° NE 23:42:33 89° NW 23:45:26 37° SW
Cosmos 1862 Rocket 4.4 23:43:12 40° E 23:43:12 40° E 23:47:01 10° NNE
SL-16 R/B 4.4 23:41:05 10° N 23:45:20 21° NE 23:49:32 10° E
Meteor 1-15 Rocket 4.1 23:42:35 10° NNW 23:48:14 82° W 23:49:03 66° SSW
Meteor 1-22 Rocket 3.9 23:44:25 10° NNW 23:49:45 80° W 23:50:22 69° SSW
Cosmos 1607 4.2 23:47:35 38° WSW 23:50:07 66° NW 23:56:36 10° NNE
SL-8 R/B 4.0 23:47:36 10° WNW 23:52:21 66° NNE 23:57:06 10° E
Cosmos 2082 Rocket 2.2 23:52:25 60° SSE 23:53:08 66° ESE 23:58:49 10° NNE
Cosmos 1833 Rocket 3.7 23:51:12 28° WSW 23:53:21 39° WNW 23:58:37 10° NNE
